Location: Gleizolles
(44.4833°N, 6.7667°E)
Time: 15:35:33
(UTC+00:00)

Tiros 1 - Pass Details

Date: 27 June 2024
Orbit: 624 x 656 km, 48.4° (Epoch: 13 July)

Event Time Altitude Azimuth Distance (km) Brightness Sun altitude
Rises 19:59:29 0° 192° (SSW) 2,890 10.2 -6.1°
Reaches altitude 10° 20:02:37 10° 170° (S) 1,986 9.2 -6.5°
Maximum altitude 20:05:16 15° 134° (SE) 1,665 8.6 -6.9°
Drops below altitude 10° 20:07:54 10° 99° (E) 1,992 9.2 -7.2°
Sets 20:11:03 0° 76° (ENE) 2,905 10.2 -7.6°
